Chariton, IA

6:15 AM CST on December 17, 2017 (GMT -0600)
Chariton Municipal

Weather History for KCNC - March, 2014

Change the Weather History Date:

Wednesday, March 12, 2014

  Actual Average Record
Temperature  
Mean Temperature 32 °F -  
Max Temperature 35 °F 48 °F 78 °F (1972)
Min Temperature 28 °F 28 °F -7 °F (1998)
Degree Days  
Heating Degree Days 34    
Moisture  
Dew Point 24 °F    
Average Humidity 69    
Maximum Humidity 80    
Minimum Humidity 52    
Precipitation  
Precipitation 0.00 in - - ()
Sea Level Pressure  
Sea Level Pressure 30.06 in    
Wind  
Wind Speed 16 mph (NNW)    
Max Wind Speed 25 mph    
Max Gust Speed 34 mph    
Visibility 10 miles    
Events      
Averages and records for this station are not official NWS values.
T = Trace of Precipitation, MM = Missing Value Source: NWS Daily Summary

Daily Weather History Graph

Daily Weather History Graph

Search for Another Location

Airport or City:

Trip Planner

Search our weather history database for the weather conditions in past years. The results will help you decide how hot, cold, wet, or windy it might be!

Date:

Astronomy

Mar. 12, 2014 Rise Set
Actual Time 7:30 AM CDT 7:16 PM CDT
Civil Twilight 7:02 AM CDT 7:44 PM CDT
Nautical Twilight 6:30 AM CDT 8:16 PM CDT
Astronomical Twilight 5:58 AM CDT 8:48 PM CDT
Moon 3:46 PM CDT (3/12) 5:03 AM CDT (3/12)
Length of Visible Light 12h 41m
Length of Day
11h 46m
Waxing Gibbous, 85% of the Moon is Illuminated
Mar 12
Waxing Gibbous
Mar 16
Full
Mar 23
Last Quarter
Mar 30
New
Apr 7
First Quarter

Hourly Weather History & Observations

Time (CDT) Temp. Windchill Dew Point Humidity Pressure Visibility Wind Dir Wind Speed Gust Speed Precip Events Conditions
12:15 AM 35.6 °F 25.9 °F 28.4 °F 75% 29.92 in 10.0 mi North 16.1 mph - N/A   Overcast
12:35 AM 35.6 °F 24.8 °F 28.4 °F 75% 29.92 in 10.0 mi North 19.6 mph 27.6 mph N/A   Overcast
12:55 AM 35.6 °F 24.0 °F 28.4 °F 75% 29.92 in 10.0 mi North 23.0 mph 28.8 mph N/A   Overcast
1:15 AM 35.6 °F 24.2 °F 28.4 °F 75% 29.92 in 10.0 mi NNW 21.9 mph 28.8 mph N/A   Overcast
1:35 AM 35.6 °F 23.7 °F 26.6 °F 70% 29.93 in 10.0 mi NNW 24.2 mph 33.4 mph N/A   Overcast
1:55 AM 33.8 °F 21.3 °F 26.6 °F 75% 29.93 in 10.0 mi NNW 24.2 mph - N/A   Overcast
2:15 AM 33.8 °F 21.9 °F 24.8 °F 70% 29.94 in 10.0 mi NNW 21.9 mph 28.8 mph N/A   Overcast
2:35 AM 33.8 °F 22.8 °F 24.8 °F 70% 29.95 in 10.0 mi NNW 18.4 mph 34.5 mph N/A   Mostly Cloudy
2:55 AM 33.8 °F 22.5 °F 24.8 °F 70% 29.96 in 10.0 mi NNW 19.6 mph 27.6 mph N/A   Clear
3:15 AM 32.0 °F 20.8 °F 24.8 °F 75% 29.96 in 10.0 mi NNW 17.3 mph 25.3 mph N/A   Clear
3:35 AM 32.0 °F 20.1 °F 24.8 °F 75% 29.96 in 10.0 mi NNW 19.6 mph 26.5 mph N/A   Clear
3:55 AM 32.0 °F 19.8 °F 24.8 °F 75% 29.96 in 10.0 mi NNW 20.7 mph - N/A   Clear
4:15 AM 32.0 °F 21.2 °F 24.8 °F 75% 29.98 in 10.0 mi NNW 16.1 mph 26.5 mph N/A   Clear
4:35 AM 32.0 °F 20.1 °F 24.8 °F 75% 29.98 in 10.0 mi NNW 19.6 mph - N/A   Partly Cloudy
4:55 AM 30.2 °F 18.1 °F 24.8 °F 80% 29.98 in 10.0 mi NNW 18.4 mph 24.2 mph N/A   Clear
5:15 AM 30.2 °F 18.9 °F 24.8 °F 80% 30.00 in 10.0 mi NNW 16.1 mph - N/A   Clear
5:35 AM 30.2 °F 19.3 °F 24.8 °F 80% 30.00 in 10.0 mi NNW 15.0 mph 20.7 mph N/A   Clear
5:55 AM 30.2 °F 19.8 °F 23.0 °F 75% 30.02 in 10.0 mi NNW 13.8 mph 24.2 mph N/A   Clear
6:15 AM 30.2 °F 19.3 °F 23.0 °F 75% 30.03 in 10.0 mi NNW 15.0 mph 23.0 mph N/A   Clear
6:35 AM 30.2 °F 19.8 °F 23.0 °F 75% 30.04 in 10.0 mi NNW 13.8 mph 23.0 mph N/A   Clear
6:55 AM 28.4 °F 17.5 °F 23.0 °F 80% 30.04 in 10.0 mi NW 13.8 mph 23.0 mph N/A   Clear
7:15 AM 28.4 °F 16.6 °F 23.0 °F 80% 30.05 in 10.0 mi NW 16.1 mph - N/A   Clear
7:35 AM 28.4 °F 16.6 °F 23.0 °F 80% 30.05 in 10.0 mi NW 16.1 mph 24.2 mph N/A   Clear
7:55 AM 28.4 °F 16.2 °F 23.0 °F 80% 30.06 in 10.0 mi NNW 17.3 mph 23.0 mph N/A   Clear
8:15 AM 28.4 °F 17.0 °F 23.0 °F 80% 30.07 in 10.0 mi NNW 15.0 mph 21.9 mph N/A   Clear
8:35 AM 30.2 °F 18.5 °F 23.0 °F 75% 30.08 in 10.0 mi NNW 17.3 mph - N/A   Clear
8:55 AM 30.2 °F 18.1 °F 23.0 °F 75% 30.08 in 10.0 mi NNW 18.4 mph 25.3 mph N/A   Clear
9:15 AM 30.2 °F 18.5 °F 21.2 °F 69% 30.08 in 10.0 mi NNW 17.3 mph 25.3 mph N/A   Clear
9:35 AM 30.2 °F 18.5 °F 21.2 °F 69% 30.09 in 10.0 mi NNW 17.3 mph 26.5 mph N/A   Clear
9:55 AM 32.0 °F 19.8 °F 23.0 °F 69% 30.10 in 10.0 mi NW 20.7 mph - N/A   Scattered Clouds
10:15 AM 32.0 °F 20.5 °F 21.2 °F 64% 30.11 in 10.0 mi NW 18.4 mph 31.1 mph N/A   Overcast
10:35 AM 32.0 °F 20.8 °F 21.2 °F 64% 30.10 in 10.0 mi NW 17.3 mph 27.6 mph N/A   Overcast
10:55 AM 32.0 °F 19.2 °F 19.4 °F 60% 30.11 in 10.0 mi NNW 23.0 mph 28.8 mph N/A   Mostly Cloudy
11:15 AM 33.8 °F 22.5 °F 21.2 °F 60% 30.11 in 10.0 mi NW 19.6 mph 26.5 mph N/A   Mostly Cloudy
11:35 AM 33.8 °F 23.2 °F 19.4 °F 56% 30.11 in 10.0 mi NNW 17.3 mph 27.6 mph N/A   Scattered Clouds
11:55 AM 35.6 °F 25.2 °F 21.2 °F 56% 30.11 in 10.0 mi NNW 18.4 mph - N/A   Clear
12:15 PM 35.6 °F 25.5 °F 19.4 °F 52% 30.11 in 10.0 mi NNW 17.3 mph 25.3 mph N/A   Mostly Cloudy
12:35 PM 35.6 °F 23.4 °F 21.2 °F 56% 30.11 in 10.0 mi NW 25.3 mph 31.1 mph N/A   Mostly Cloudy
1:15 PM 35.6 °F 24.5 °F 21.2 °F 56% 30.12 in 10.0 mi NW 20.7 mph - N/A   Overcast
1:35 PM 35.6 °F 25.2 °F 21.2 °F 56% 30.11 in 10.0 mi NNW 18.4 mph 28.8 mph N/A   Mostly Cloudy
1:55 PM 35.6 °F 25.9 °F 21.2 °F 56% 30.11 in 10.0 mi NW 16.1 mph 23.0 mph N/A   Mostly Cloudy
2:15 PM 35.6 °F 25.9 °F 21.2 °F 56% 30.11 in 10.0 mi NW 16.1 mph 26.5 mph N/A   Mostly Cloudy
2:35 PM 35.6 °F 25.2 °F 21.2 °F 56% 30.11 in 10.0 mi NW 18.4 mph 25.3 mph N/A   Overcast
2:55 PM 35.6 °F 25.9 °F 21.2 °F 56% 30.11 in 10.0 mi NNW 16.1 mph 21.9 mph N/A   Overcast
3:15 PM 35.6 °F 25.9 °F 23.0 °F 60% 30.11 in 10.0 mi NNW 16.1 mph - N/A   Overcast
3:35 PM 35.6 °F 27.1 °F 21.2 °F 56% 30.12 in 10.0 mi NNW 12.7 mph 21.9 mph N/A   Overcast
3:55 PM 35.6 °F 27.5 °F 23.0 °F 60% 30.11 in 10.0 mi NNW 11.5 mph - N/A   Overcast
4:15 PM 35.6 °F 27.1 °F 23.0 °F 60% 30.12 in 10.0 mi NNW 12.7 mph 19.6 mph N/A   Overcast
4:35 PM 35.6 °F 26.6 °F 23.0 °F 60% 30.11 in 10.0 mi NW 13.8 mph - N/A   Overcast
4:55 PM 35.6 °F 28.0 °F 24.8 °F 65% 30.12 in 10.0 mi NNW 10.4 mph - N/A   Overcast
5:15 PM 35.6 °F 27.1 °F 24.8 °F 65% 30.11 in 10.0 mi NW 12.7 mph - N/A   Overcast
5:35 PM 35.6 °F 27.5 °F 24.8 °F 65% 30.11 in 10.0 mi NW 11.5 mph - N/A   Overcast
5:55 PM 35.6 °F 26.2 °F 24.8 °F 65% 30.11 in 10.0 mi NW 15.0 mph - N/A   Overcast
6:15 PM 35.6 °F 27.5 °F 24.8 °F 65% 30.11 in 10.0 mi NNW 11.5 mph 17.3 mph N/A   Overcast
6:35 PM 35.6 °F 27.5 °F 24.8 °F 65% 30.11 in 10.0 mi NW 11.5 mph - N/A   Overcast
6:55 PM 35.6 °F 29.2 °F 24.8 °F 65% 30.11 in 10.0 mi NNW 8.1 mph - N/A   Mostly Cloudy
7:15 PM 35.6 °F 31.7 °F 24.8 °F 65% 30.10 in 10.0 mi North 4.6 mph - N/A   Overcast
7:35 PM 33.8 °F 30.8 °F 24.8 °F 70% 30.10 in 10.0 mi NNE 3.5 mph - N/A   Overcast
7:55 PM 33.8 °F 29.6 °F 24.8 °F 70% 30.11 in 10.0 mi NE 4.6 mph - N/A   Overcast
8:15 PM 32.0 °F 26.4 °F 24.8 °F 75% 30.11 in 10.0 mi NE 5.8 mph - N/A   Overcast
8:35 PM 32.0 °F 26.4 °F 24.8 °F 75% 30.11 in 10.0 mi ENE 5.8 mph - N/A   Overcast
8:55 PM 32.0 °F 26.4 °F 24.8 °F 75% 30.12 in 10.0 mi NE 5.8 mph - N/A   Overcast
9:15 PM 32.0 °F 26.4 °F 24.8 °F 75% 30.12 in 10.0 mi ENE 5.8 mph - N/A   Overcast
9:35 PM 32.0 °F 27.5 °F 23.0 °F 69% 30.12 in 10.0 mi East 4.6 mph - N/A   Overcast
9:55 PM 30.2 °F 24.3 °F 23.0 °F 75% 30.12 in 10.0 mi East 5.8 mph - N/A   Overcast
10:15 PM 30.2 °F 25.4 °F 23.0 °F 75% 30.11 in 10.0 mi East 4.6 mph - N/A   Overcast
10:35 PM 30.2 °F 25.4 °F 23.0 °F 75% 30.11 in 10.0 mi ESE 4.6 mph - N/A   Overcast
10:55 PM 30.2 °F 25.4 °F 23.0 °F 75% 30.10 in 10.0 mi SE 4.6 mph - N/A   Overcast
11:15 PM 28.4 °F 23.3 °F 21.2 °F 74% 30.10 in 10.0 mi SE 4.6 mph - N/A   Mostly Cloudy
11:35 PM 28.4 °F 22.2 °F 23.0 °F 80% 30.09 in 10.0 mi SE 5.8 mph - N/A   Scattered Clouds
11:55 PM 28.4 °F 23.3 °F 23.0 °F 80% 30.10 in 10.0 mi SE 4.6 mph - N/A   Scattered Clouds